Regional Weather Roundup
Issued by NWS

Home | Current Version | Previous Version | Graphics & Text | Print | Product List | Glossary On
Versions: 1 2 3 4 5 6 7 8 9 10 11 12 13 14 15 16 17 18 19 20 21 22 23 24 25 26 27 28 29 30 31 32 33 34 35 36 37 38 39 40 41 42 43 44 45 46 47 48 49 50
000
ASUS43 KFSD 302102
RWRSD

WEATHER ROUNDUP FOR SOUTH DAKOTA
NATIONAL WEATHER SERVICE SIOUX FALLS SD
400 PM CDT MON MAR 30 2015

NOTE: "FAIR" INDICATES FEW OR NO CLOUDS BELOW 12,000 FEET WITH NO
SIGNIFICANT WEATHER AND/OR OBSTRUCTIONS TO VISIBILITY.


SDZ001>005-009-010-012>017-302200-
NORTHWEST AND NORTH CENTRAL SOUTH DAKOTA

CITY           SKY/WX    TMP DP  RH WIND       PRES   REMARKS
BUFFALO          N/A     68  26  20 NW22G39   29.94S
FAITH            N/A     70  26  19 NW25G32   29.96F
MOBRIDGE       SUNNY     71  32  23 NW23G29   29.89R
$$

SDZ012>016-024>037-041>051-057-063-072>074-302200-
SOUTHWEST AND SOUTH CENTRAL SOUTH DAKOTA

CITY           SKY/WX    TMP DP  RH WIND       PRES   REMARKS
RAPID CTY ARPT SUNNY     66  29  24 N22       30.01F
PIERRE         SUNNY     73  26  17 NW26G35   29.91F
CUSTER         PTSUNNY   62  19  19 SW8G20    30.09F
PHILIP         MOSUNNY   72  24  16 NW22G32   29.98S
PINE RIDGE     SUNNY     69  26  20 N9        30.04F
SPEARFISH      FAIR      63  30  29 NW13G23   30.07F
WINNER         FAIR      74  27  17 NW21G31   29.95F
$$

SDZ004>011-016>023-039-040-302200-
NORTHEAST SOUTH DAKOTA

CITY           SKY/WX    TMP DP  RH WIND       PRES   REMARKS
ABERDEEN       SUNNY     71  35  26 NW24G36   29.84R
WATERTOWN      SUNNY     70  32  24 NW26G35   29.82R
SISSETON         N/A     69  37  30 NW31G39   29.78R
$$

SDZ017-020-022-023-036>040-048>070-302200-
SOUTHEAST SOUTH DAKOTA

CITY           SKY/WX    TMP DP  RH WIND       PRES   REMARKS
SIOUX FALLS    CLOUDY    74  27  17 NW25G35   29.83S
HURON          MOSUNNY   74  27  17 NW28G38   29.84S
MITCHELL       MOSUNNY   76  29  17 NW24G31   29.86F
YANKTON        MOSUNNY   75  28  17 W22G31    29.86F
$$

ABBREVIATIONS USED IN REMARKS
   TC - TEMPERATURE IN CELSIUS
  WCI - WIND CHILL INDEX
   HX - HEAT INDEX
  VSB - VISIBILITY




USA.gov is the U.S. government's official web portal to all federal, state and local government web resources and services.